Home > Weather > St. Louis > Past weeks

Flag for USA Past Weather in St. Louis, Missouri, USA — Yesterday and Last 2 Weeks

Now
78 °F

Cloudy.


Feels Like: 80 °F
Forecast: 68 / 75 °F
Wind: 12 mph from South

Location: Lambert-St. Louis International Airport

Current Time: May 27, 2016 at 5:16:56 PM

Latest Report: May 27, 2016 at 3:51 PM


Visibility: 10 mi

Pressure: 29.79 "Hg

Humidity: 71%

Dew Point: 68 °F

Location of St. LouisLocation

Past Weather in St. Louis — Graph

°F

St. Louis Temperature Yesterday

Maximum temperature yesterday: 81 °F (at 3:51 PM)
Minimum temperature yesterday: 67 °F (at 7:51 AM)
Average temperature yesterday: 75 °F

High & Low Weather Summary for the Past Weeks

 TemperatureHumidityPressure
High86 °F (May 24, 1:51 PM)90% (May 18, 5:51 AM)30.24 "Hg (May 18, 5:51 AM)
Low45 °F (May 15, 2:51 AM)25% (May 22, 1:51 PM)29.79 "Hg (May 27, 3:51 PM)
Average65 °F60%30.06 "Hg
* Reported May 12 3:51 PM — May 27 3:51 PM, St. Louis, Weather by CustomWeather, © 2016

Note: Actual official high and low records may vary slightly from our data, if they occured in-between our weather recording intervals... More about our weather records

Advertising

St. Louis Weather History for the Previous 24 Hours

Scroll right to see more
 ConditionsComfort  
Time TempWeatherWind HumidityBarometerVisibility
3:51 PM
Fri, May 27
78 °FCloudy.12 mph71%29.79 "Hg10 mi
2:51 PM77 °FCloudy.13 mph74%29.80 "Hg10 mi
1:51 PM75 °FMore clouds than sun.10 mph76%29.82 "Hg10 mi
12:51 PM76 °FMostly cloudy.10 mph74%29.82 "Hg10 mi
11:51 AM74 °FMostly cloudy.14 mph79%29.83 "Hg10 mi
10:51 AM72 °FMostly cloudy.18 mph84%29.84 "Hg10 mi
9:51 AM70 °FLight rain. Fog.10 mph87%29.86 "Hg4 mi
9:01 AM70 °FLight rain. Mostly cloudy.14 mph88%29.89 "Hg9 mi
7:51 AM70 °FLight rain. Mostly cloudy.18 mph84%29.86 "Hg6 mi
6:58 AM70 °FCloudy.10 mph83%29.89 "Hg9 mi
5:51 AM69 °FLight rain. Fog.8 mph87%29.86 "Hg5 mi
4:51 AM69 °FLight rain. Mostly cloudy.9 mph87%29.87 "Hg7 mi
3:51 AM69 °FLight rain. Mostly cloudy.6 mph87%29.86 "Hg10 mi
2:51 AM69 °FMostly cloudy.10 mph87%29.86 "Hg10 mi
1:51 AM70 °FLight rain. Mostly cloudy.10 mph87%29.90 "Hg9 mi
12:51 AM71 °FLight rain. Mostly cloudy.7 mph84%29.90 "Hg9 mi
11:51 PM
Thu, May 26
72 °FLight rain. Mostly cloudy.7 mph78%29.90 "Hg7 mi
10:51 PM74 °FThunderstorms. Mostly cloudy.14 mph74%29.89 "Hg7 mi
9:51 PM76 °FMostly cloudy.9 mph72%29.90 "Hg10 mi
8:51 PM77 °FMostly cloudy.13 mph69%29.86 "Hg10 mi
7:51 PM77 °FMostly cloudy.9 mph66%29.85 "Hg10 mi
6:51 PM78 °FBroken clouds.14 mph62%29.83 "Hg10 mi
5:51 PM81 °FScattered clouds.8 mph58%29.83 "Hg10 mi
Weather by CustomWeather, © 2016

See weather overviewHow to use our weather pages